This is the latest recevied weather packets stored in our database for station/object PY2TED-10. If no packets are shown the sender has not sent any weather packets the latest 10 day(s).
| Time | Temp. | Humidity | Pressure | Rain* | Wind** | Luminosity | Snow |
|---|---|---|---|---|---|---|---|
| 1778165530 | 25° C | 61% | 993.9 hPa | 0 mm | - | - | - |
| 1778165525 | 25° C | 61% | 994 hPa | 0 mm | - | - | - |
| 1778164925 | 24.44° C | 61% | 994.3 hPa | 0 mm | - | - | - |
| 1778164330 | 24.44° C | 61% | 994.5 hPa | 0 mm | - | - | - |
| 1778164325 | 24.44° C | 61% | 994.4 hPa | 0 mm | - | - | - |
| 1778163730 | 23.89° C | 61% | 994.5 hPa | 0 mm | - | - | - |
| 1778163725 | 24.44° C | 61% | 994.4 hPa | 0 mm | - | - | - |
| 1778163125 | 23.89° C | 61% | 994.6 hPa | 0 mm | - | - | - |
| 1778162531 | 23.89° C | 61% | 994.8 hPa | 0 mm | - | - | - |
| 1778162526 | 23.89° C | 61% | 994.7 hPa | 0 mm | - | - | - |
| 1778161926 | 23.33° C | 61% | 994.9 hPa | 0 mm | - | - | - |
| 1778161325 | 23.33° C | 61% | 995 hPa | 0 mm | - | - | - |
| 1778160725 | 23.33° C | 61% | 995.4 hPa | 0 mm | - | - | - |
| 1778160130 | 23.33° C | 61% | 995.4 hPa | 0 mm | - | - | - |
| 1778160125 | 23.33° C | 61% | 995.5 hPa | 0 mm | - | - | - |
| 1778159525 | 22.78° C | 60% | 995.6 hPa | 0 mm | - | - | - |
| 1778158925 | 22.78° C | 60% | 995.6 hPa | 0 mm | - | - | - |
| 1778158325 | 22.78° C | 60% | 995.7 hPa | 0 mm | - | - | - |
| 1778157726 | 22.22° C | 60% | 995.8 hPa | 0 mm | - | - | - |
| 1778157126 | 22.22° C | 60% | 995.8 hPa | 0 mm | - | - | - |
| 1778156530 | 22.22° C | 60% | 995.8 hPa | 0 mm | - | - | - |
| 1778156526 | 22.22° C | 60% | 995.9 hPa | 0 mm | - | - | - |
| 1778155926 | 22.22° C | 60% | 995.9 hPa | 0 mm | - | - | - |
| 1778155325 | 22.22° C | 59% | 995.7 hPa | 0 mm | - | - | - |
| 1778154725 | 22.22° C | 59% | 995.7 hPa | 0 mm | - | - | - |
* Rain latest hour (hover to see other rain measurements)
** Current wind speed in m/s (hover to see current wind gust speed)